User: anonymous   Login
Location: Cherry Road
(34.5193°N, 112.0852°W)
Time: 17:49:40
(UTC-07:00)
Language:

Hubble Space Telescope - Orbit

View from above orbital plane
View from above orbital plane
View from above satellite
View from above satellite

Ground track
Ground track

The orbit data is extracted from the following two-line orbital elements,

1 20580U 90037B   15108.65989568  .00003579  00000-0  22040-3 0  9990
2 20580 028.4698 186.6099 0002719 323.6193 164.5444 15.07208623170829
Epoch (UTC): 18 April 2015 15:50:14
Eccentricity: 0.0002719
inclination: 28.4698°
perigee height: 543 km
apogee height: 546 km
right ascension of ascending node: 186.6099°
argument of perigee: 323.6193°
revolutions per day: 15.07208623
mean anomaly at epoch: 164.5444°
orbit number at epoch: 17082

The dashed part of the orbit path shows where the satellite is in the earth's shadow,  

DLR